Hit Tracker is now ESPN Home Run Tracker! Hit Tracker founder Greg Rybarczyk is now collaborating with the ESPN Stats & Information Group to continue tracking all MLB home runs, and helping baseball fans know "How Far It Really Went!™" Please credit any information on this site to ESPN Stats & Information Group. For more information and analysis on home runs, please contact founder Greg Rybarczyk. E-Mail ESPN Home Run Tracker
Main Page | Ballparks | Park Overlays | Glossary | Highlight Homers | Feedback | Bio | 3 Types of HR's | AAA Home Run Derby Last Updated: June 25, 2017, 8:49 pm PST
If you want to know "How Far It Really Went!", then you've come to the right place! Welcome to the ESPN Home Run Tracker, where you can find accurate, transparently verifiable distances for every home run hit in MLB games. Please also check out the ESPN MLB Scoreboard throughout the 2017 season! Contact us at grybar@hittrackeronline.com.
Season:
Ballpark detail for PETCO Park
Ballpark # of Home Runs HR per game Avg.
True
Distance
Avg.
Speed
Off
Bat
Avg.
Std.
Dist.
PETCO Park 88 2.32 399.5 104.2 398.8

Scatter Plot of Home Runs PETCO Park
 Overlay Ballpark:
Without range rings   With range rings

2017 Season Home Runs for PETCO Park
Click headers to sort
Date Video Path Hitter Hitter
Team
Pitcher Pitcher
Team
INN Ballpark Type/
Luck
 ^
True
Dist.
Speed
Off
Bat
Elev.
Angle
Horiz.
Angle
Apex Impact Due To: Std.
Dist.
#
Parks
Wind Temp. Alt.
04/09/17 Video View Myers, Wil SD Cueto, Johnny SF 6 PETCO Park PL 355 98.6 28.8 122.7 72 0 -1 0 355 29
04/09/17 Video View Posey, Buster SF Richard, Clayton SD 3 PETCO Park PL 370 100.5 27.1 65.7 72 0 -1 0 371 26
04/09/17 Video View Pence, Hunter SF Richard, Clayton SD 3 PETCO Park PL 355 96.8 31.6 118.7 87 -1 -1 0 357 21
04/07/17 Video View Belt, Brandon SF Buchter, Ryan SD 8 PETCO Park PL 421 104.4 24.6 92.5 84 0 0 0 421 26
04/07/17 Video View Belt, Brandon SF Perdomo, Luis SD 6 PETCO Park PL 436 109.1 23.3 83.1 81 0 0 0 437 29
04/07/17 Video View Margot, Manuel SD Cain, Matt SF 1 PETCO Park PL 408 102.7 26.9 99.9 89 0 0 0 408 30
04/18/17 Video View Tomas, Yasmany ARI Stammen, Craig SD 5 PETCO Park PL 380 103.4 26.2 115.6 71 0 0 0 380 30
04/19/17 Video View Aybar, Erick SD Greinke, Zack ARI 8 PETCO Park PL 374 100.1 31.6 63.1 94 0 -1 0 375 29
04/20/17 Video View Myers, Wil SD Corbin, Patrick ARI 1 PETCO Park PL 439 111.2 21.7 96.9 73 0 0 0 438 29
04/20/17 Video View Hedges, Austin SD Delgado, Randall ARI 7 PETCO Park PL 376 100.4 31.4 117.1 94 0 -1 0 376 30
04/21/17 Video View Stanton, Giancarlo MIA Hand, Brad SD 9 PETCO Park PL 409 111.5 21.1 75.1 60 0 0 0 409 29
04/22/17 Video View Stanton, Giancarlo MIA Weaver, Jered SD 2 PETCO Park PL 374 108.9 22.6 122.9 55 0 0 -1 375 30
04/22/17 Video View Prado, Martin MIA Weaver, Jered SD 6 PETCO Park PL 394 100.6 28.7 104.2 91 0 1 0 393 29
05/02/17 Video View Schimpf, Ryan SD Chatwood, Tyler COL 6 PETCO Park PL 435 108.3 25.7 78.6 89 2 -1 0 434 29
05/03/17 Video View Desmond, Ian COL Weaver, Jered SD 5 PETCO Park PL 390 108.9 22.7 113.8 59 1 0 0 389 30
05/03/17 Video View Aybar, Erick SD Senzatela, Antonio COL 5 PETCO Park PL 398 101.5 29.6 73.9 95 2 0 0 396 30
05/06/17 Video View Bellinger, Cody LAD Diaz, Miguel SD 9 PETCO Park PL 393 103.3 32.1 67.5 109 0 -2 0 395 30
05/08/17 Video View Hedges, Austin SD Martinez, Nick TEX 4 PETCO Park PL 422 105.0 24.2 93.8 82 0 0 0 422 26
05/08/17 Video View Choo, Shin-Soo TEX Hand, Brad SD 7 PETCO Park PL 394 100.0 29.3 101.2 97 0 0 0 395 24
05/08/17 Video View Spangenberg, Cory SD Claudio, Alex TEX 7 PETCO Park PL 396 107.6 25.2 64.1 70 0 -1 0 396 30
05/09/17 Video View Rua, Ryan TEX Weaver, Jered SD 1 PETCO Park PL 418 103.2 28.0 83.9 101 0 -1 0 419 26
05/09/17 Video View Gallo, Joey TEX Weaver, Jered SD 3 PETCO Park PL 380 102.2 35.2 68.7 127 0 -2 0 382 30
05/09/17 Video View Chirinos, Robinson TEX Quackenbush, Kevin SD 7 PETCO Park PL 386 103.9 24.7 109.0 68 0 0 0 386 28
05/16/17 Video View Myers, Wil SD Nelson, Jimmy MIL 6 PETCO Park PL 433 109.5 20.9 91.5 70 0 0 0 433 27
05/19/17 Video View Drury, Brandon ARI Weaver, Jered SD 1 PETCO Park PL 391 99.2 30.4 102.3 100 0 0 0 390 24
05/20/17 Video View Herrmann, Chris ARI Perdomo, Luis SD 1 PETCO Park PL/L 414 99.0 31.6 89.7 102 18 -2 0 397 0
05/21/17 Video View Iannetta, Chris ARI Richard, Clayton SD 3 PETCO Park PL 410 104.7 25.4 77.7 81 0 0 0 410 29
05/29/17 Video View Renfroe, Hunter SD Hendricks, Kyle CHC 4 PETCO Park PL 371 97.2 31.5 107.7 97 0 -1 0 372 19
05/30/17 Video View Schwarber, Kyle CHC Lamet, Dinelson SD 5 PETCO Park PL 397 103.9 29.5 67.1 93 0 -1 0 398 30
05/31/17 Video View Schimpf, Ryan SD Arrieta, Jake CHC 2 PETCO Park PL 390 102.4 30.5 66.8 96 0 -1 0 391 30
06/02/17 Video View Hedges, Austin SD Marquez, German COL 4 PETCO Park PL 383 102.1 27.1 111.9 77 0 -1 0 384 29
06/02/17 Video View Solarte, Yangervis SD Marquez, German COL 5 PETCO Park PL 422 108.1 23.4 79.3 75 0 -1 0 422 29
06/02/17 Video View Myers, Wil SD Dunn, Mike COL 7 PETCO Park PL 373 101.5 26.3 113.8 70 0 0 0 373 24
06/03/17 Video View Hedges, Austin SD Chatwood, Tyler COL 5 PETCO Park PL 378 102.6 29.7 123.1 83 0 -1 0 379 30
06/03/17 Video View Desmond, Ian COL Torres, Jose SD 7 PETCO Park PL 407 110.0 21.0 102.4 60 0 0 0 407 30
06/09/17 Video View Perez, Salvador KC Chacin, Jhoulys SD 5 PETCO Park PL 395 101.5 31.4 106.2 108 0 -1 0 396 30
06/09/17 Video View Szczur, Matt SD Strahm, Matt KC 7 PETCO Park PL 403 101.9 30.9 102.4 110 0 -1 0 404 30
06/10/17 Video View Pirela, Jose SD Kennedy, Ian KC 1 PETCO Park PL 416 102.7 26.3 93.1 91 0 0 0 416 20
06/10/17 Video View Cain, Lorenzo KC Torres, Jose SD 6 PETCO Park PL 394 102.5 33.6 106.4 124 0 -1 0 395 30
06/10/17 Video View Escobar, Alcides KC Stammen, Craig SD 5 PETCO Park PL 383 99.8 29.6 108.7 91 0 -1 0 383 30
06/10/17 Video View Perez, Salvador KC Hand, Brad SD 8 PETCO Park PL 392 100.8 33.1 103.3 119 0 -1 0 393 30
06/11/17 Video View Gordon, Alex KC Lamet, Dinelson SD 4 PETCO Park PL 382 99.1 28.8 68.0 76 10 -1 0 372 20
06/11/17 Video View Spangenberg, Cory SD Junis, Jake KC 7 PETCO Park PL 434 103.2 33.8 99.2 122 29 -3 0 406 27
06/12/17 Video View Solarte, Yangervis SD Arroyo, Bronson CIN 2 PETCO Park PL 421 105.1 23.6 87.4 79 0 0 0 421 26
06/13/17 Video View Cordero, Franchy SD Feldman, Scott CIN 3 PETCO Park PL 414 102.3 27.5 94.7 96 0 0 0 414 23
06/14/17 Video View Peraza, Jose CIN Chacin, Jhoulys SD 1 PETCO Park PL 387 102.2 28.6 113.8 84 0 1 0 386 30
06/24/17 Video View Sanchez, Hector SD Greene, Shane DET 8 PETCO Park PL 414 105.5 30.5 79.1 122 -9 -1 -1 424 30
06/25/17 Video View Myers, Wil SD Zimmermann, Jordan DET 1 PETCO Park PL 401 102.0 31.7 103.7 113 0 -1 0 401 30
06/25/17 Video View Aybar, Erick SD Zimmermann, Jordan DET 2 PETCO Park PL 391 103.9 27.2 66.3 79 0 0 0 391 30
06/25/17 Video View Castellanos, Nick DET Richard, Clayton SD 6 PETCO Park PL 400 107.5 24.9 67.5 71 0 0 0 400 30
04/21/17 Video View Ozuna, Marcell MIA Cahill, Trevor SD 2 PETCO Park ND 411 107.0 26.5 110.5 82 0 0 0 410 30
04/21/17 Video View Hedges, Austin SD Phelps, David MIA 7 PETCO Park ND 429 109.8 29.4 112.1 105 0 -1 0 429 30
04/22/17 Video View Stanton, Giancarlo MIA Diaz, Miguel SD 11 PETCO Park ND 409 115.3 22.4 120.4 61 0 0 0 409 30
04/23/17 Video View Bour, Justin MIA Stammen, Craig SD 6 PETCO Park ND 406 111.2 24.4 61.2 68 0 -1 0 406 30
05/02/17 Video View Solarte, Yangervis SD Chatwood, Tyler COL 6 PETCO Park ND 414 111.2 25.3 61.5 72 3 -1 0 412 30
05/05/17 Video View Bellinger, Cody LAD Chacin, Jhoulys SD 4 PETCO Park ND 432 112.5 27.4 64.2 91 0 -1 0 433 30
05/08/17 Video View Schimpf, Ryan SD Martinez, Nick TEX 3 PETCO Park ND 398 108.2 26.4 59.1 74 0 -1 0 399 30
05/15/17 Video View Sogard, Eric MIL Torres, Jose SD 10 PETCO Park ND 407 106.7 32.3 66.4 117 0 -3 0 409 30
05/19/17 Video View Lamb, Jake ARI Weaver, Jered SD 1 PETCO Park ND 435 114.1 24.1 68.4 76 0 1 0 434 30
05/19/17 Video View Peralta, David ARI Stammen, Craig SD 6 PETCO Park ND 424 108.0 28.3 70.5 97 0 1 0 423 30
05/21/17 Video View Schimpf, Ryan SD Godley, Zack ARI 5 PETCO Park ND 373 101.4 29.6 57.5 81 0 0 0 373 30
06/03/17 Video View Arenado, Nolan COL Chacin, Jhoulys SD 5 PETCO Park ND 435 109.4 27.4 105.9 99 0 -1 0 436 30
06/04/17 Video View Renfroe, Hunter SD Hoffman, Jeff COL 5 PETCO Park ND 407 107.4 33.3 114.7 123 0 -1 0 409 30
06/11/17 Video View Moustakas, Mike KC Lamet, Dinelson SD 1 PETCO Park ND 410 102.6 33.2 66.1 105 23 -2 0 388 30
06/11/17 Video View Hosmer, Eric KC Lamet, Dinelson SD 5 PETCO Park ND 415 105.5 28.5 68.6 87 9 -1 0 407 30
06/14/17 Video View Renfroe, Hunter SD Garrett, Amir CIN 6 PETCO Park ND 430 110.2 27.3 110.2 94 -2 2 0 431 30
04/09/17 Video View Solarte, Yangervis SD Law, Derek SF 8 PETCO Park JE 349 96.4 29.0 60.8 73 0 -1 0 349 16
04/07/17 Video View Margot, Manuel SD Cain, Matt SF 3 PETCO Park JE 367 103.7 22.9 111.1 57 0 0 0 367 7
04/18/17 Video View Iannetta, Chris ARI Lee, Zach SD 8 PETCO Park JE 409 103.1 25.4 82.3 83 0 0 0 409 27
04/22/17 Video View Hedges, Austin SD Straily, Dan MIA 4 PETCO Park JE 380 98.2 28.2 103.6 84 0 0 0 380 12
04/23/17 Video View Renfroe, Hunter SD Koehler, Tom MIA 4 PETCO Park JE 407 100.4 29.8 91.3 107 0 -1 0 407 14
05/03/17 Video View Desmond, Ian COL Weaver, Jered SD 1 PETCO Park JE 362 103.7 23.5 117.4 57 0 0 0 362 10
05/04/17 Video View Hanigan, Ryan COL Buchter, Ryan SD 7 PETCO Park JE 374 97.2 31.8 105.1 102 -3 1 0 376 18
05/05/17 Video View Bellinger, Cody LAD Diaz, Miguel SD 9 PETCO Park JE 411 105.9 21.2 92.7 66 0 0 0 411 9
05/06/17 Video View Schimpf, Ryan SD Kershaw, Clayton LAD 8 PETCO Park JE 411 102.8 31.7 83.6 123 0 -2 0 414 25
05/15/17 Video View Aguilar, Jesus MIL Perdomo, Luis SD 6 PETCO Park JE 407 101.4 30.3 84.2 111 0 -2 0 409 20
05/15/17 Video View Renfroe, Hunter SD Drake, Oliver MIL 10 PETCO Park JE 368 100.8 24.4 108.4 63 0 0 0 368 5
05/18/17 Video View Renfroe, Hunter SD Davies, Zach MIL 2 PETCO Park JE 389 111.5 19.5 105.0 50 0 0 0 389 14
05/19/17 Video View Lamb, Jake ARI Stammen, Craig SD 6 PETCO Park JE 407 100.8 28.3 95.3 97 0 0 0 406 16
05/30/17 Video View Hedges, Austin SD Butler, Eddie CHC 2 PETCO Park JE 409 111.1 18.9 96.7 55 0 0 0 409 16
06/10/17 Video View Hosmer, Eric KC Hand, Brad SD 8 PETCO Park JE 375 97.9 34.2 103.8 118 0 -1 0 376 13
06/10/17 Video View Cain, Lorenzo KC Valdez, Jose SD 8 PETCO Park JE 366 99.0 27.1 111.9 72 0 0 0 366 15
06/11/17 Video View Spangenberg, Cory SD Junis, Jake KC 4 PETCO Park JE 419 104.3 24.1 88.4 72 0 -1 0 419 25
06/11/17 Video View Moustakas, Mike KC Torres, Jose SD 9 PETCO Park JE 381 99.3 26.6 106.5 69 6 -1 0 376 3
06/11/17 Video View Pirela, Jose SD Junis, Jake KC 8 PETCO Park JE 419 105.5 24.0 82.5 71 1 -1 0 417 25
06/12/17 Video View Cordero, Franchy SD Arroyo, Bronson CIN 2 PETCO Park JE 370 101.6 24.9 111.5 64 0 0 0 370 17
06/13/17 Video View Cordero, Franchy SD Cingrani, Tony CIN 7 PETCO Park JE 425 112.3 18.6 86.4 58 0 0 -1 425 24
06/14/17 Video View Votto, Joey CIN Chacin, Jhoulys SD 4 PETCO Park JE 413 102.1 29.0 84.4 105 -2 1 0 414 25


About HitTracker | Contact Us
© 2006-2017 HitTrackerOnline